map of MVD home
MVD - Airport
Location
City:  Montevideo, Canelones, Uruguay
Name:Carrasco/General Cesáreo L. Berisso International Airport
ICAO:SUMU
IATA:MVD

Details
Type:Airport (Aerodrome, Airfield)
Use:Public/Civil, Military, International (customs port of entry)
Latitude:34°50'18"S (-34.838416)
Longitude:56°01'51"W (-56.030805)
Datum:other
Elevation:105 ft (32 m)
Variation:10.89°W (WMM2015 magnetic declination)
-0.16° annual change
Runways:3
Longest:10499 × 148 ft (3200 × 45 m), paved

Time
Time Zone:UTC-3
Local Time:

Weather
METAR:SUMU 260400Z 03006KT CAVOK 11/08 Q1021 TEMPO BR 5000
TAF:SUMU 252330Z 2600/2624 03005KT CAVOK TX20/2618Z TN09/2610Z
TEMPO 2600/2612 3000 BR NSC PROB30
TEMPO 2600/2608 0800 BCFG

Related Locations
Nearby:
Farthest:MPK: 12307 mi / 19806 km
Mokpo, KR

Find:

   beyond  
but within

Other Information
Maps:
NOTAMs:
Links:
Sources:

  
flag of Uruguay
flag of Canelones
  

Sectional Chart

Flight Planning
at skyvector.com

Satellite Image

Google Maps Satellite view

 

Copyright © 2004-2018 Karl L. Swartz. All rights reserved.
The Great Circle Mapper name and logo are trademarks of the Great Circle Mapper.
All other trademarks mentioned herein belong to their respective owners.
Please see credits for attibutions and further copyright information.

  Follow gcmap on Facebook Follow gcmap on Twitter Follow gcmap on Google+ GCmap on LinkedIn

hCard Microformat

Geo Microformat